WetterOnline ( http://www.wetteronline.de )

Wetter aktuell Sauerland (in 400m)

Aktuelles Wetter: Lüdenscheid (392m)

6-stündlich | Neueste Meldungen
Ortszeit Temperatur Wetter
Mi, 22.08. 2:00 18.4° C bewölkt
Di, 21.08. 20:00 22.6° C bedeckt
Di, 21.08. 14:00 22.5° C bedeckt
Di, 21.08. 8:00 16.8° C bedeckt
Di, 21.08. 2:00 17.2° C bedeckt
Mo, 20.08. 20:00 19.5° C bedeckt
Mo, 20.08. 14:00 19.0° C bedeckt
Mo, 20.08. 8:00 17.2° C bedeckt
Ortszeit Temperatur Wetter
Mi, 22.08. 5:10 16.6° C wolkig
Mi, 22.08. 5:00 16.9° C bewölkt
Mi, 22.08. 4:50 16.9° C bewölkt
Mi, 22.08. 4:40 16.7° C bewölkt
Mi, 22.08. 4:30 17.0° C bedeckt
Mi, 22.08. 4:20 17.0° C bedeckt
Mi, 22.08. 4:00 17.2° C bedeckt
Mi, 22.08. 3:30 17.8° C bedeckt
Mi, 22.08. 3:00 17.9° C bewölkt
Mi, 22.08. 2:30 18.2° C bedeckt
Mi, 22.08. 2:00 18.4° C bewölkt
Ortszeit Relative Feuchte Sichtweite
Mi, 22.08. 2:00 67% >70 km
Di, 21.08. 20:00 50% >70 km
Di, 21.08. 14:00 48% >70 km
Di, 21.08. 8:00 88% 26 km
Di, 21.08. 2:00 84% 45 km
Mo, 20.08. 20:00 75% 30 km
Mo, 20.08. 14:00 86% 16 km
Mo, 20.08. 8:00 85% 19 km
Ortszeit Relative Feuchte Sichtweite
Mi, 22.08. 5:10 76% -
Mi, 22.08. 5:00 75% >70 km
Mi, 22.08. 4:50 75% -
Mi, 22.08. 4:40 75% -
Mi, 22.08. 4:30 73% 65 km
Mi, 22.08. 4:20 73% -
Mi, 22.08. 4:00 73% 60 km
Mi, 22.08. 3:30 70% 55 km
Mi, 22.08. 3:00 69% >70 km
Mi, 22.08. 2:30 68% 55 km
Mi, 22.08. 2:00 67% >70 km
Ortszeit Niederschlagsmenge Niederschlagsart
Mi, 22.08. 2:00 0.0 l/m2 in 6 Std. -
Di, 21.08. 20:00 0.0 l/m2 in 12 Std. -
Di, 21.08. 14:00 0.0 l/m2 in 6 Std. -
Di, 21.08. 8:00 0.0 l/m2 in 12 Std. -
Di, 21.08. 2:00 0.0 l/m2 in 6 Std. -
Mo, 20.08. 20:00 1 l/m2 in 12 Std. Regen
Mo, 20.08. 14:00 1 l/m2 in 6 Std. Regen
Mo, 20.08. 8:00 0.1 l/m2 in 12 Std. Sprühregen
Ortszeit Niederschlagsmenge Niederschlagsart
Mi, 22.08. 5:10 keine Meldung -
Mi, 22.08. 5:00 0.0 l/m2 in 1 Std. -
Mi, 22.08. 4:50 keine Meldung -
Mi, 22.08. 4:40 keine Meldung -
Mi, 22.08. 4:30 0.0 l/m2 in 1 Std. -
Mi, 22.08. 4:20 keine Meldung -
Mi, 22.08. 4:00 0.0 l/m2 in 1 Std. -
Mi, 22.08. 3:30 0.0 l/m2 in 1 Std. -
Mi, 22.08. 3:00 0.0 l/m2 in 1 Std. -
Mi, 22.08. 2:30 0.0 l/m2 in 1 Std. -
Mi, 22.08. 2:00 0.0 l/m2 in 1 Std. -
Ortszeit Stärke Spitze Richtung
km/h Bft. km/h Grad Sektor
Mi, 22.08. 2:00 4 1 18 70° O
Di, 21.08. 20:00 6 1 20 60° NO
Di, 21.08. 14:00 6 1 15 130° SO
Di, 21.08. 8:00 2 1 7 100° O
Di, 21.08. 2:00 4 1 11 80° O
Mo, 20.08. 20:00 4 1 22 290° W
Mo, 20.08. 14:00 11 2 22 250° W
Mo, 20.08. 8:00 11 2 25 250° W
Ortszeit Stärke Spitze Richtung
km/h Bft. km/h Grad Sektor
Mi, 22.08. 5:10 4 1 - 90° O
Mi, 22.08. 5:00 4 1 7 70° O
Mi, 22.08. 4:50 4 1 - 70° O
Mi, 22.08. 4:40 4 1 - 60° NO
Mi, 22.08. 4:30 4 1 7 70° O
Mi, 22.08. 4:20 4 1 - 70° O
Mi, 22.08. 4:00 4 1 7 70° O
Mi, 22.08. 3:30 4 1 7 50° NO
Mi, 22.08. 3:00 4 1 7 70° O
Mi, 22.08. 2:30 0 0 7 - -
Mi, 22.08. 2:00 4 1 11 70° O
Ortszeit Untergrenze Bedeckung Gattung
total tief tief mittel hoch
Mi, 22.08. 2:00 1500 m 8/8 7/8 - - -
Di, 21.08. 20:00 - 8/8 - - - -
Di, 21.08. 14:00 2100 m 8/8 8/8 - - -
Di, 21.08. 8:00 2100 m 8/8 8/8 - - -
Di, 21.08. 2:00 1500 m 8/8 8/8 - - -
Mo, 20.08. 20:00 660 m 8/8 8/8 - - -
Mo, 20.08. 14:00 270 m 8/8 8/8 - - -
Mo, 20.08. 8:00 1020 m 8/8 8/8 - - -
Ortszeit Bedeckungsgrad in Achtel und Wolkenuntergrenze
Mi, 22.08. 5:10 4(2100m) 7(9000m)
Mi, 22.08. 5:00 6(2100m) 7(9000m) 8(9000m)
Mi, 22.08. 4:50 6(2100m) 7(9000m)
Mi, 22.08. 4:40 7(2100m) 7(9000m)
Mi, 22.08. 4:30 8(2100m) 7(9000m)
Mi, 22.08. 4:20 8(2100m)
Mi, 22.08. 4:00 8(2100m) 8(9000m)
Mi, 22.08. 3:30 8(2400m) 8(9000m)
Mi, 22.08. 3:00 7(2400m)
Mi, 22.08. 2:30 3(1500m) 8(2100m)
Mi, 22.08. 2:00 4(1500m) 7(2400m)
Ortszeit Luftdruck NN (hPa) Tendenz (hPa in 3 Std.)
Mi, 22.08. 2:00 1019 0,0
Di, 21.08. 20:00 1018 - 0,8
Di, 21.08. 14:00 1020 - 0,5
Di, 21.08. 8:00 1021 + 0,6
Di, 21.08. 2:00 1021 + 0,5
Mo, 20.08. 20:00 1019 0,0
Mo, 20.08. 14:00 1020 + 0,2
Mo, 20.08. 8:00 1019 + 0,6
Ortszeit Luftdruck NN (hPa) Tendenz (hPa in 3 Std.)
Mi, 22.08. 5:10 1018 keine Meldung
Mi, 22.08. 5:00 1018 - 0,8
Mi, 22.08. 4:50 1018 keine Meldung
Mi, 22.08. 4:40 1019 keine Meldung
Mi, 22.08. 4:30 1019 - 0,9
Mi, 22.08. 4:20 1019 keine Meldung
Mi, 22.08. 4:00 1019 - 0,8
Mi, 22.08. 3:30 1019 - 0,8
Mi, 22.08. 3:00 1019 - 0,5
Mi, 22.08. 2:30 1019 - 0,4
Mi, 22.08. 2:00 1019 0,0
Ortszeit Schneehöhe (cm)
Mi, 22.08. 2:00 -
Di, 21.08. 20:00 -
Di, 21.08. 14:00 -
Di, 21.08. 8:00 -
Di, 21.08. 2:00 -
Mo, 20.08. 20:00 -
Mo, 20.08. 14:00 -
Mo, 20.08. 8:00 -
Ortszeit Schneehöhe (cm)
Mi, 22.08. 5:10 -
Mi, 22.08. 5:00 -
Mi, 22.08. 4:50 -
Mi, 22.08. 4:40 -
Mi, 22.08. 4:30 -
Mi, 22.08. 4:20 -
Mi, 22.08. 4:00 -
Mi, 22.08. 3:30 -
Mi, 22.08. 3:00 -
Mi, 22.08. 2:30 -
Mi, 22.08. 2:00 -
Link zu dieser Seite / Seite empfehlen

Das Wetter in ...